Location: Kellogg
(38.0159°N, 90.0546°W)
Time: 07:56:44
(UTC+00:00)

S-56A Canister/Altair - Pass Details

Date: 22 September 2024
Orbit: 636 x 2487 km, 38.9° (Epoch: 09 October)

Event Time Altitude Azimuth Distance (km) Brightness Sun altitude
Rises 23:26:42 0° 262° (W) 2,939 13.5 5.0°
Reaches altitude 10° 23:28:49 10° 263° (W) 2,081 12.7 4.6°
Maximum altitude 23:33:29 86° 352° (N) 769 7.7 3.7°
Drops below altitude 10° 23:39:40 10° 82° (E) 2,735 9.7 2.4°
Sets 23:42:50 0° 83° (E) 3,955 10.5 1.8°
